Envisat - Orbit

View from above orbital plane
View from above orbital plane
View from above satellite
View from above satellite

Ground track
Ground track

The orbit data is extracted from the following two-line orbital elements,

1 27386U 02009A   13144.43884620  .00000058  00000-0  33566-4 0  4079
2 27386 098.4292 213.2097 0001171 086.3828 273.7496 14.37611332587729
Epoch (UTC): 24 May 2013 10:31:56
Eccentricity: 0.0001171
inclination: 98.4292°
perigee height: 765 km
apogee height: 767 km
right ascension of ascending node: 213.2097°
argument of perigee: 86.3828°
revolutions per day: 14.37611332
mean anomaly at epoch: 273.7496°
orbit number at epoch: 58772

The dashed part of the orbit path shows where the satellite is in the earth's shadow,  

Developed and maintained by Chris Peat, Heavens-Above GmbH. Please read the updated FAQ before sending e-mail. Imprint. DLR